GEC478 NZAA-YSSY

Flight info

Callsign GEC478
Flight time 3h 11m
Altitude 36000
Route VELMO DCT 38S163E DCT PLUGA DCT RIKNI N774 MARLN
Aircraft MD11/H-SDE1E2E3FGHIJ2J3J4J5M1RWXY/LB1D1

Departure

Time 2026-05-07 17:53
Airport Auckland International Airport (NZAA)

Arrival

Time 2026-05-07 21:04
Airport Sydney Kingsford Smith International Airport (YSSY)
Time Latitude Longitude Altitude Speed Heading
2026-05-07 17:33 -37.00974 174.77814 28 ft 0 kts 340°
2026-05-07 17:34 -37.00975 174.77814 28 ft 0 kts 340°
2026-05-07 17:42 -37.00977 174.77815 26 ft 3 kts 341°
2026-05-07 17:42 -37.01003 174.77824 27 ft 4 kts 347°
2026-05-07 17:42 -37.01021 174.77832 27 ft 2 kts 308°
2026-05-07 17:42 -37.01033 174.77854 27 ft 4 kts 275°
2026-05-07 17:43 -37.01029 174.77881 25 ft 4 kts 244°
2026-05-07 17:43 -37.01023 174.77898 27 ft 1 kts 250°
2026-05-07 17:43 -37.01022 174.77900 27 ft 0 kts 250°
2026-05-07 17:47 -37.01030 174.77873 26 ft 6 kts 250°
2026-05-07 17:47 -37.01053 174.77798 26 ft 11 kts 249°
2026-05-07 17:47 -37.01077 174.77727 30 ft 2 kts 228°
2026-05-07 17:48 -37.01082 174.77724 28 ft 0 kts 217°
2026-05-07 17:48 -37.01096 174.77716 28 ft 5 kts 200°
2026-05-07 17:48 -37.01141 174.77702 30 ft 7 kts 208°
2026-05-07 17:49 -37.01190 174.77651 26 ft 10 kts 205°
2026-05-07 17:49 -37.01259 174.77635 29 ft 8 kts 207°
2026-05-07 17:49 -37.01298 174.77583 28 ft 10 kts 244°
2026-05-07 17:49 -37.01330 174.77470 29 ft 17 kts 251°
2026-05-07 17:50 -37.01378 174.77302 31 ft 23 kts 250°
2026-05-07 17:50 -37.01435 174.77125 29 ft 17 kts 232°
2026-05-07 17:50 -37.01524 174.77095 29 ft 12 kts 193°
2026-05-07 17:50 -37.01539 174.77090 29 ft 0 kts 194°
2026-05-07 17:51 -37.01557 174.77085 29 ft 7 kts 194°
2026-05-07 17:51 -37.01583 174.77082 29 ft 1 kts 168°
2026-05-07 17:51 -37.01590 174.77085 29 ft 2 kts 162°
2026-05-07 17:52 -37.01601 174.77114 29 ft 7 kts 104°
2026-05-07 17:52 -37.01593 174.77213 30 ft 21 kts 75°
2026-05-07 17:52 -37.01482 174.77621 30 ft 90 kts 70°
2026-05-07 17:52 -37.01165 174.78730 47 ft 175 kts 68°
2026-05-07 17:53 -37.00750 174.80310 745 ft 201 kts 69°
2026-05-07 17:53 -37.00288 174.81975 1922 ft 201 kts 64°
2026-05-07 17:53 -36.99732 174.83761 2629 ft 240 kts 63°
2026-05-07 17:53 -36.99100 174.85774 3628 ft 251 kts 66°
2026-05-07 17:54 -36.98566 174.87846 4850 ft 244 kts 68°
2026-05-07 17:54 -36.98117 174.89739 6477 ft 224 kts 70°
2026-05-07 17:54 -36.97661 174.91686 7209 ft 237 kts 70°
2026-05-07 17:54 -36.97190 174.93693 8018 ft 244 kts 70°
2026-05-07 17:55 -36.96710 174.95751 8793 ft 253 kts 70°
2026-05-07 17:55 -36.96220 174.97886 9343 ft 254 kts 70°
2026-05-07 17:55 -36.95737 175.00031 10149 ft 260 kts 70°
2026-05-07 17:55 -36.95249 175.02226 10868 ft 264 kts 70°
2026-05-07 17:56 -36.94756 175.04461 11604 ft 269 kts 70°
2026-05-07 17:56 -36.94259 175.06734 12348 ft 274 kts 70°
2026-05-07 17:56 -36.93760 175.09049 13096 ft 278 kts 70°
2026-05-07 17:56 -36.93275 175.11413 13773 ft 288 kts 75°
2026-05-07 17:57 -36.93360 175.14053 13919 ft 324 kts 102°
2026-05-07 17:57 -36.93936 175.15835 14010 ft 346 kts 118°
2026-05-07 17:57 -36.96236 175.18915 14210 ft 383 kts 147°
2026-05-07 17:57 -36.98726 175.20325 14341 ft 404 kts 167°
2026-05-07 17:58 -37.01522 175.20654 14896 ft 406 kts 187°
2026-05-07 17:58 -37.04263 175.19906 15574 ft 403 kts 205°
2026-05-07 17:58 -37.06676 175.18186 16261 ft 398 kts 223°
2026-05-07 17:58 -37.08586 175.15723 16925 ft 394 kts 236°
2026-05-07 17:59 -37.10191 175.12983 17530 ft 395 kts 239°
2026-05-07 17:59 -37.11732 175.10120 18182 ft 398 kts 240°
2026-05-07 17:59 -37.13338 175.07277 18768 ft 402 kts 238°
2026-05-07 17:59 -37.14898 175.04370 19261 ft 400 kts 247°
2026-05-07 18:00 -37.15873 175.01136 19782 ft 396 kts 259°
2026-05-07 18:00 -37.16439 174.97757 20286 ft 397 kts 263°
2026-05-07 18:00 -37.16926 174.94337 20812 ft 400 kts 263°
2026-05-07 18:00 -37.17457 174.90901 21362 ft 403 kts 262°
2026-05-07 18:01 -37.18057 174.87451 21891 ft 407 kts 261°
2026-05-07 18:01 -37.18711 174.83999 22431 ft 410 kts 259°
2026-05-07 18:01 -37.19408 174.80512 22984 ft 413 kts 259°
2026-05-07 18:01 -37.20127 174.77008 23540 ft 417 kts 259°
2026-05-07 18:02 -37.21599 174.69923 24539 ft 422 kts 259°
2026-05-07 18:02 -37.22343 174.66346 25044 ft 425 kts 259°
2026-05-07 18:02 -37.23088 174.62762 25631 ft 426 kts 259°
2026-05-07 18:03 -37.23836 174.59150 26139 ft 428 kts 259°
2026-05-07 18:03 -37.24584 174.55525 26642 ft 431 kts 259°
2026-05-07 18:03 -37.25338 174.51868 27127 ft 434 kts 259°
2026-05-07 18:03 -37.26100 174.48189 27601 ft 437 kts 258°
2026-05-07 18:04 -37.26999 174.44521 28082 ft 442 kts 255°
2026-05-07 18:04 -37.28036 174.40878 28548 ft 445 kts 253°
2026-05-07 18:04 -37.29141 174.37225 29019 ft 449 kts 253°
2026-05-07 18:04 -37.30269 174.33562 29470 ft 452 kts 253°
2026-05-07 18:05 -37.31391 174.29919 29904 ft 454 kts 253°
2026-05-07 18:05 -37.32524 174.26218 30476 ft 452 kts 253°
2026-05-07 18:05 -37.33646 174.22529 30953 ft 451 kts 253°
2026-05-07 18:05 -37.34765 174.18820 31149 ft 457 kts 253°
2026-05-07 18:06 -37.35885 174.15089 31556 ft 456 kts 253°
2026-05-07 18:06 -37.37003 174.11361 32003 ft 455 kts 253°
2026-05-07 18:06 -37.38115 174.07649 32456 ft 453 kts 253°
2026-05-07 18:06 -37.39222 174.03947 32884 ft 452 kts 253°
2026-05-07 18:07 -37.40325 174.00256 33321 ft 450 kts 253°
2026-05-07 18:07 -37.41422 173.96578 33746 ft 448 kts 253°
2026-05-07 18:07 -37.42511 173.92918 34136 ft 447 kts 253°
2026-05-07 18:07 -37.43599 173.89260 34513 ft 444 kts 253°
2026-05-07 18:08 -37.44678 173.85631 34877 ft 442 kts 254°
2026-05-07 18:08 -37.45750 173.82018 35230 ft 439 kts 253°
2026-05-07 18:08 -37.46814 173.78425 35589 ft 437 kts 253°
2026-05-07 18:08 -37.47872 173.74848 35897 ft 436 kts 253°
2026-05-07 18:09 -37.48930 173.71263 35981 ft 438 kts 253°
2026-05-07 18:09 -37.51050 173.64068 36007 ft 438 kts 254°
2026-05-07 18:10 -37.53167 173.56869 36001 ft 438 kts 254°
2026-05-07 18:10 -37.55283 173.49653 36011 ft 439 kts 254°
2026-05-07 18:11 -37.57373 173.42412 35992 ft 440 kts 254°
2026-05-07 18:11 -37.59453 173.35217 35992 ft 440 kts 254°
2026-05-07 18:12 -37.61555 173.27980 35985 ft 440 kts 254°
2026-05-07 18:12 -37.63657 173.20736 35983 ft 440 kts 254°
2026-05-07 18:13 -37.65754 173.13493 35982 ft 439 kts 255°
2026-05-07 18:13 -37.67845 173.06252 35976 ft 439 kts 255°
2026-05-07 18:14 -37.69929 172.99011 35963 ft 439 kts 255°
2026-05-07 18:14 -37.72007 172.91773 35965 ft 439 kts 255°
2026-05-07 18:15 -37.74082 172.84529 35967 ft 439 kts 255°
2026-05-07 18:15 -37.76163 172.77234 35959 ft 442 kts 255°
2026-05-07 18:16 -37.78249 172.69914 35942 ft 442 kts 255°
2026-05-07 18:16 -37.80324 172.62610 35942 ft 442 kts 255°
2026-05-07 18:17 -37.82398 172.55288 35946 ft 442 kts 255°
2026-05-07 18:17 -37.84459 172.47954 35943 ft 442 kts 255°
2026-05-07 18:18 -37.86498 172.40611 35954 ft 442 kts 255°
2026-05-07 18:18 -37.88540 172.33300 35940 ft 440 kts 255°
2026-05-07 18:19 -37.90584 172.25993 35934 ft 440 kts 255°
2026-05-07 18:19 -37.92625 172.18687 35927 ft 440 kts 255°
2026-05-07 18:20 -37.94665 172.11363 35925 ft 442 kts 255°
2026-05-07 18:20 -37.96708 172.04010 35918 ft 442 kts 255°
2026-05-07 18:21 -37.98744 171.96663 35916 ft 441 kts 255°
2026-05-07 18:21 -38.00772 171.89318 35911 ft 441 kts 255°
2026-05-07 18:22 -38.02783 171.82020 35908 ft 441 kts 255°
2026-05-07 18:22 -38.04801 171.74672 35901 ft 441 kts 255°
2026-05-07 18:23 -38.06815 171.67320 35897 ft 441 kts 256°
2026-05-07 18:23 -38.08823 171.59970 35896 ft 439 kts 256°
2026-05-07 18:24 -38.10818 171.52646 35882 ft 439 kts 256°
2026-05-07 18:24 -38.12785 171.45310 35879 ft 438 kts 256°
2026-05-07 18:25 -38.14747 171.37980 35877 ft 439 kts 256°
2026-05-07 18:25 -38.16722 171.30642 35859 ft 439 kts 256°
2026-05-07 18:26 -38.18697 171.23307 35870 ft 437 kts 256°
2026-05-07 18:26 -38.20659 171.16002 35861 ft 436 kts 256°
2026-05-07 18:27 -38.22602 171.08744 35857 ft 436 kts 256°
2026-05-07 18:27 -38.24552 171.01438 35849 ft 436 kts 256°
2026-05-07 18:28 -38.26475 170.94119 35848 ft 435 kts 258°
2026-05-07 18:28 -38.27249 170.87886 35852 ft 426 kts 271°
2026-05-07 18:29 -38.27225 170.80384 35842 ft 424 kts 274°
2026-05-07 18:29 -38.27099 170.72885 35831 ft 424 kts 274°
2026-05-07 18:30 -38.27041 170.65376 35832 ft 424 kts 274°
2026-05-07 18:30 -38.27016 170.57866 35829 ft 424 kts 273°
2026-05-07 18:31 -38.26996 170.50366 35835 ft 424 kts 274°
2026-05-07 18:31 -38.26971 170.42883 35815 ft 424 kts 274°
2026-05-07 18:32 -38.26940 170.35391 35814 ft 424 kts 274°
2026-05-07 18:32 -38.26904 170.27894 35805 ft 424 kts 274°
2026-05-07 18:33 -38.26863 170.20400 35808 ft 424 kts 274°
2026-05-07 18:33 -38.26818 170.12952 35804 ft 422 kts 274°
2026-05-07 18:34 -38.26768 170.05480 35801 ft 422 kts 274°
2026-05-07 18:34 -38.26713 169.98014 35792 ft 422 kts 274°
2026-05-07 18:35 -38.26653 169.90546 35790 ft 422 kts 274°
2026-05-07 18:35 -38.26580 169.83079 35783 ft 422 kts 275°
2026-05-07 18:36 -38.26481 169.75615 35788 ft 422 kts 275°
2026-05-07 18:36 -38.26393 169.68128 35781 ft 423 kts 275°
2026-05-07 18:37 -38.26311 169.60654 35779 ft 423 kts 275°
2026-05-07 18:37 -38.26228 169.53166 35770 ft 423 kts 275°
2026-05-07 18:38 -38.26139 169.45688 35761 ft 423 kts 275°
2026-05-07 18:38 -38.26048 169.38267 35760 ft 422 kts 275°
2026-05-07 18:39 -38.25950 169.30798 35758 ft 422 kts 275°
2026-05-07 18:39 -38.25847 169.23334 35748 ft 422 kts 275°
2026-05-07 18:40 -38.25740 169.15865 35745 ft 422 kts 275°
2026-05-07 18:40 -38.25628 169.08400 35737 ft 422 kts 275°
2026-05-07 18:41 -38.25511 169.00935 35737 ft 422 kts 275°
2026-05-07 18:41 -38.25390 168.93474 35731 ft 422 kts 275°
2026-05-07 18:42 -38.25264 168.86007 35731 ft 422 kts 275°
2026-05-07 18:42 -38.25129 168.78549 35731 ft 422 kts 276°
2026-05-07 18:43 -38.24963 168.71093 35731 ft 422 kts 276°
2026-05-07 18:43 -38.24807 168.63639 35726 ft 422 kts 276°
2026-05-07 18:44 -38.24657 168.56181 35723 ft 422 kts 276°
2026-05-07 18:44 -38.24507 168.48724 35715 ft 422 kts 276°
2026-05-07 18:45 -38.24353 168.41267 35715 ft 422 kts 276°
2026-05-07 18:45 -38.24194 168.33804 35709 ft 422 kts 276°
2026-05-07 18:46 -38.24031 168.26360 35718 ft 420 kts 277°
2026-05-07 18:46 -38.23863 168.18943 35695 ft 420 kts 277°
2026-05-07 18:47 -38.23690 168.11512 35703 ft 420 kts 277°
2026-05-07 18:47 -38.23513 168.04136 35685 ft 420 kts 277°
2026-05-07 18:48 -38.23331 167.96706 35684 ft 420 kts 277°
2026-05-07 18:48 -38.23145 167.89281 35687 ft 420 kts 278°
2026-05-07 18:49 -38.22953 167.81853 35683 ft 420 kts 278°
2026-05-07 18:49 -38.22756 167.74427 35673 ft 420 kts 278°
2026-05-07 18:50 -38.22527 167.67004 35674 ft 420 kts 278°
2026-05-07 18:50 -38.22301 167.59582 35669 ft 420 kts 278°
2026-05-07 18:51 -38.22085 167.52149 35669 ft 421 kts 279°
2026-05-07 18:51 -38.21868 167.44711 35658 ft 422 kts 279°
2026-05-07 18:52 -38.21647 167.37243 35652 ft 423 kts 279°
2026-05-07 18:52 -38.21421 167.29763 35655 ft 423 kts 279°
2026-05-07 18:53 -38.21193 167.22337 35680 ft 423 kts 280°
2026-05-07 18:53 -38.20958 167.14871 35649 ft 422 kts 279°
2026-05-07 18:54 -38.20718 167.07412 35640 ft 422 kts 279°
2026-05-07 18:54 -38.20473 166.99953 35639 ft 422 kts 279°
2026-05-07 18:55 -38.20224 166.92494 35634 ft 422 kts 280°
2026-05-07 18:55 -38.19970 166.85031 35649 ft 423 kts 280°
2026-05-07 18:56 -38.19710 166.77565 35622 ft 423 kts 280°
2026-05-07 18:56 -38.19446 166.70088 35621 ft 423 kts 280°
2026-05-07 18:57 -38.19154 166.62619 35618 ft 423 kts 281°
2026-05-07 18:57 -38.18859 166.55201 35616 ft 423 kts 281°
2026-05-07 18:58 -38.18573 166.47729 35623 ft 424 kts 281°
2026-05-07 18:58 -38.18287 166.40234 35610 ft 425 kts 281°
2026-05-07 18:59 -38.17999 166.32734 35603 ft 425 kts 281°
2026-05-07 18:59 -38.17705 166.25234 35605 ft 425 kts 281°
2026-05-07 19:00 -38.17407 166.17730 35598 ft 425 kts 281°
2026-05-07 19:00 -38.17103 166.10220 35605 ft 426 kts 282°
2026-05-07 19:01 -38.16793 166.02692 35589 ft 427 kts 282°
2026-05-07 19:01 -38.16479 165.95166 35602 ft 427 kts 282°
2026-05-07 19:02 -38.16160 165.87629 35580 ft 427 kts 282°
2026-05-07 19:02 -38.15836 165.80091 35583 ft 427 kts 282°
2026-05-07 19:03 -38.15506 165.72554 35588 ft 428 kts 282°
2026-05-07 19:03 -38.15171 165.64997 35583 ft 429 kts 282°
2026-05-07 19:04 -38.14813 165.57492 35576 ft 428 kts 282°
2026-05-07 19:04 -38.14443 165.49942 35577 ft 428 kts 282°
2026-05-07 19:05 -38.14085 165.42383 35573 ft 429 kts 282°
2026-05-07 19:05 -38.13730 165.34821 35563 ft 429 kts 282°
2026-05-07 19:06 -38.13370 165.27254 35564 ft 429 kts 282°
2026-05-07 19:06 -38.12822 165.15914 35563 ft 429 kts 282°
2026-05-07 19:07 -38.12450 165.08355 35564 ft 429 kts 282°
2026-05-07 19:07 -38.12069 165.00758 35569 ft 432 kts 282°
2026-05-07 19:08 -38.11685 164.93140 35565 ft 433 kts 282°
2026-05-07 19:08 -38.11298 164.85565 35557 ft 433 kts 282°
2026-05-07 19:09 -38.10904 164.77942 35552 ft 433 kts 282°
2026-05-07 19:09 -38.10504 164.70320 35589 ft 433 kts 282°
2026-05-07 19:10 -38.10095 164.62654 35553 ft 436 kts 282°
2026-05-07 19:10 -38.09674 164.54966 35557 ft 436 kts 283°
2026-05-07 19:11 -38.09226 164.47279 35541 ft 437 kts 283°
2026-05-07 19:11 -38.08790 164.39593 35542 ft 437 kts 283°
2026-05-07 19:12 -38.08357 164.31891 35551 ft 438 kts 282°
2026-05-07 19:12 -38.07921 164.24164 35538 ft 439 kts 282°
2026-05-07 19:13 -38.07483 164.16483 35534 ft 439 kts 282°
2026-05-07 19:13 -38.07038 164.08751 35532 ft 439 kts 282°
2026-05-07 19:14 -38.06586 164.01019 35527 ft 440 kts 282°
2026-05-07 19:14 -38.06124 163.93248 35530 ft 444 kts 282°
2026-05-07 19:15 -38.05658 163.85436 35526 ft 444 kts 282°
2026-05-07 19:15 -38.05188 163.77620 35520 ft 444 kts 282°
2026-05-07 19:16 -38.04712 163.69821 35515 ft 444 kts 282°
2026-05-07 19:16 -38.04228 163.61999 35535 ft 446 kts 282°
2026-05-07 19:17 -38.03736 163.54137 35516 ft 448 kts 282°
2026-05-07 19:17 -38.03218 163.46270 35511 ft 447 kts 283°
2026-05-07 19:18 -38.02692 163.38403 35508 ft 448 kts 282°
2026-05-07 19:18 -38.02264 163.31856 35502 ft 448 kts 282°
2026-05-07 19:19 -38.01748 163.23969 35516 ft 450 kts 282°
2026-05-07 19:19 -38.01144 163.14764 35500 ft 450 kts 282°
2026-05-07 19:20 -38.00684 163.08136 35506 ft 448 kts 284°
2026-05-07 19:20 -37.99324 163.00533 35498 ft 439 kts 293°
2026-05-07 19:21 -37.97470 162.93164 35513 ft 439 kts 294°
2026-05-07 19:21 -37.95606 162.85800 35500 ft 439 kts 293°
2026-05-07 19:22 -37.93797 162.78466 35497 ft 439 kts 292°
2026-05-07 19:22 -37.91989 162.71067 35499 ft 439 kts 292°
2026-05-07 19:23 -37.90180 162.63677 35502 ft 439 kts 292°
2026-05-07 19:23 -37.88362 162.56281 35508 ft 441 kts 291°
2026-05-07 19:24 -37.86531 162.48853 35506 ft 442 kts 291°
2026-05-07 19:24 -37.84696 162.41422 35504 ft 442 kts 292°
2026-05-07 19:25 -37.82855 162.33996 35507 ft 442 kts 292°
2026-05-07 19:25 -37.81010 162.26575 35504 ft 442 kts 292°
2026-05-07 19:26 -37.79162 162.19170 35510 ft 441 kts 290°
2026-05-07 19:26 -37.77312 162.11776 35508 ft 441 kts 290°
2026-05-07 19:27 -37.75453 162.04394 35513 ft 441 kts 291°
2026-05-07 19:27 -37.73579 161.97070 35511 ft 441 kts 291°
2026-05-07 19:28 -37.71703 161.89698 35511 ft 441 kts 290°
2026-05-07 19:28 -37.69833 161.82328 35508 ft 441 kts 290°
2026-05-07 19:29 -37.67960 161.74953 35506 ft 441 kts 290°
2026-05-07 19:29 -37.66085 161.67590 35506 ft 440 kts 290°
2026-05-07 19:30 -37.64205 161.60232 35510 ft 440 kts 290°
2026-05-07 19:30 -37.62321 161.52883 35514 ft 440 kts 289°
2026-05-07 19:31 -37.60438 161.45552 35511 ft 440 kts 289°
2026-05-07 19:31 -37.58546 161.38212 35513 ft 440 kts 289°
2026-05-07 19:32 -37.56649 161.30873 35513 ft 440 kts 289°
2026-05-07 19:32 -37.54759 161.23584 35513 ft 440 kts 289°
2026-05-07 19:33 -37.52857 161.16275 35515 ft 438 kts 289°
2026-05-07 19:33 -37.50958 161.08990 35513 ft 437 kts 289°
2026-05-07 19:34 -37.49039 161.01721 35513 ft 437 kts 289°
2026-05-07 19:34 -37.47111 160.94464 35516 ft 437 kts 289°
2026-05-07 19:35 -37.45191 160.87200 35527 ft 437 kts 288°
2026-05-07 19:35 -37.43279 160.79960 35527 ft 436 kts 288°
2026-05-07 19:36 -37.41369 160.72735 35524 ft 435 kts 288°
2026-05-07 19:36 -37.39465 160.65555 35524 ft 435 kts 288°
2026-05-07 19:37 -37.37544 160.58331 35530 ft 435 kts 288°
2026-05-07 19:37 -37.35621 160.51125 35530 ft 434 kts 288°
2026-05-07 19:38 -37.33701 160.43947 35532 ft 433 kts 288°
2026-05-07 19:38 -37.31778 160.36775 35533 ft 432 kts 288°
2026-05-07 19:39 -37.29865 160.29663 35538 ft 432 kts 288°
2026-05-07 19:39 -37.27936 160.22511 35538 ft 432 kts 288°
2026-05-07 19:40 -37.26008 160.15385 35543 ft 430 kts 287°
2026-05-07 19:40 -37.24085 160.08295 35544 ft 429 kts 288°
2026-05-07 19:41 -37.22136 160.01219 35555 ft 429 kts 288°
2026-05-07 19:41 -37.20188 159.94150 35555 ft 429 kts 288°
2026-05-07 19:42 -37.18247 159.87077 35566 ft 429 kts 288°
2026-05-07 19:42 -37.16314 159.80028 35566 ft 427 kts 287°
2026-05-07 19:43 -37.14381 159.72995 35574 ft 427 kts 288°
2026-05-07 19:43 -37.12445 159.65970 35585 ft 427 kts 288°
2026-05-07 19:44 -37.10518 159.58993 35585 ft 426 kts 288°
2026-05-07 19:44 -37.08560 159.51929 35593 ft 426 kts 288°
2026-05-07 19:45 -37.06639 159.45018 35593 ft 422 kts 288°
2026-05-07 19:45 -37.04718 159.38120 35600 ft 418 kts 287°
2026-05-07 19:46 -37.02807 159.31278 35607 ft 417 kts 287°
2026-05-07 19:46 -37.00892 159.24436 35616 ft 417 kts 287°
2026-05-07 19:47 -36.98971 159.17593 35611 ft 415 kts 288°
2026-05-07 19:47 -36.97064 159.10816 35628 ft 412 kts 288°
2026-05-07 19:48 -36.95140 159.04064 35627 ft 412 kts 288°
2026-05-07 19:48 -36.93210 158.97324 35641 ft 412 kts 288°
2026-05-07 19:49 -36.91289 158.90580 35641 ft 412 kts 288°
2026-05-07 19:49 -36.89373 158.83841 35652 ft 411 kts 288°
2026-05-07 19:50 -36.87463 158.77139 35648 ft 409 kts 288°
2026-05-07 19:50 -36.85553 158.70452 35656 ft 409 kts 288°
2026-05-07 19:51 -36.83639 158.63770 35657 ft 409 kts 288°
2026-05-07 19:51 -36.81720 158.57087 35662 ft 409 kts 288°
2026-05-07 19:52 -36.79799 158.50411 35663 ft 409 kts 288°
2026-05-07 19:52 -36.77887 158.43785 35673 ft 409 kts 288°
2026-05-07 19:53 -36.75960 158.37120 35673 ft 408 kts 288°
2026-05-07 19:53 -36.74027 158.30453 35673 ft 408 kts 288°
2026-05-07 19:54 -36.72092 158.23793 35677 ft 408 kts 288°
2026-05-07 19:54 -36.70154 158.17140 35679 ft 407 kts 288°
2026-05-07 19:55 -36.68218 158.10519 35680 ft 407 kts 289°
2026-05-07 19:55 -36.66256 158.03912 35698 ft 407 kts 289°
2026-05-07 19:56 -36.64301 157.97308 35696 ft 406 kts 289°
2026-05-07 19:56 -36.62352 157.90697 35704 ft 406 kts 289°
2026-05-07 19:57 -36.60404 157.84092 35706 ft 406 kts 289°
2026-05-07 19:57 -36.58468 157.77540 35712 ft 406 kts 289°
2026-05-07 19:58 -36.56516 157.70952 35715 ft 406 kts 289°
2026-05-07 19:58 -36.54560 157.64366 35723 ft 406 kts 289°
2026-05-07 19:59 -36.52601 157.57783 35723 ft 406 kts 289°
2026-05-07 19:59 -36.50641 157.51213 35735 ft 405 kts 289°
2026-05-07 20:00 -36.48678 157.44649 35736 ft 405 kts 289°
2026-05-07 20:00 -36.46714 157.38097 35742 ft 405 kts 289°
2026-05-07 20:01 -36.44749 157.31556 35740 ft 405 kts 289°
2026-05-07 20:01 -36.42777 157.25008 35745 ft 405 kts 289°
2026-05-07 20:02 -36.40801 157.18465 35743 ft 404 kts 289°
2026-05-07 20:02 -36.38837 157.11997 35749 ft 403 kts 289°
2026-05-07 20:03 -36.36846 157.05525 35757 ft 400 kts 289°
2026-05-07 20:03 -36.34871 156.99070 35767 ft 400 kts 289°
2026-05-07 20:04 -36.32904 156.92624 35770 ft 400 kts 289°
2026-05-07 20:04 -36.30936 156.86181 35773 ft 399 kts 289°
2026-05-07 20:05 -36.28969 156.79750 35778 ft 399 kts 289°
2026-05-07 20:05 -36.26998 156.73324 35781 ft 399 kts 289°
2026-05-07 20:06 -36.25022 156.66895 35781 ft 399 kts 289°
2026-05-07 20:06 -36.23043 156.60473 35789 ft 399 kts 289°
2026-05-07 20:07 -36.21074 156.54098 35789 ft 399 kts 289°
2026-05-07 20:07 -36.19085 156.47672 35792 ft 400 kts 289°
2026-05-07 20:08 -36.17094 156.41252 35792 ft 400 kts 289°
2026-05-07 20:08 -36.15096 156.34825 35797 ft 400 kts 289°
2026-05-07 20:09 -36.13094 156.28402 35797 ft 400 kts 289°
2026-05-07 20:10 -36.10426 156.19862 35801 ft 400 kts 289°
2026-05-07 20:10 -36.08403 156.13458 35803 ft 400 kts 289°
2026-05-07 20:11 -36.06371 156.07060 35813 ft 400 kts 289°
2026-05-07 20:11 -36.04350 156.00662 35810 ft 400 kts 289°
2026-05-07 20:12 -36.02330 155.94260 35811 ft 400 kts 289°
2026-05-07 20:12 -36.00305 155.87853 35813 ft 401 kts 289°
2026-05-07 20:13 -35.98273 155.81434 35820 ft 401 kts 289°
2026-05-07 20:13 -35.96237 155.75018 35812 ft 402 kts 289°
2026-05-07 20:14 -35.94194 155.68596 35822 ft 402 kts 289°
2026-05-07 20:14 -35.92147 155.62176 35821 ft 402 kts 289°
2026-05-07 20:15 -35.90105 155.55785 35823 ft 404 kts 289°
2026-05-07 20:15 -35.88041 155.49339 35833 ft 404 kts 289°
2026-05-07 20:16 -35.85972 155.42892 35833 ft 404 kts 289°
2026-05-07 20:16 -35.83902 155.36455 35852 ft 404 kts 289°
2026-05-07 20:17 -35.81825 155.30010 35842 ft 405 kts 289°
2026-05-07 20:17 -35.79744 155.23567 35858 ft 405 kts 289°
2026-05-07 20:18 -35.77638 155.17127 35843 ft 405 kts 289°
2026-05-07 20:18 -35.75527 155.10688 35851 ft 405 kts 289°
2026-05-07 20:19 -35.73427 155.04250 35844 ft 405 kts 289°
2026-05-07 20:19 -35.71343 154.97859 35847 ft 405 kts 289°
2026-05-07 20:20 -35.69242 154.91424 35855 ft 406 kts 289°
2026-05-07 20:20 -35.67133 154.84979 35863 ft 406 kts 289°
2026-05-07 20:21 -35.65022 154.78542 35866 ft 406 kts 289°
2026-05-07 20:21 -35.62514 154.72303 35871 ft 412 kts 300°
2026-05-07 20:22 -35.58894 154.66782 35852 ft 417 kts 304°
2026-05-07 20:22 -35.55056 154.61423 35867 ft 418 kts 305°
2026-05-07 20:23 -35.51256 154.56032 35878 ft 417 kts 304°
2026-05-07 20:23 -35.47488 154.50616 35876 ft 417 kts 304°
2026-05-07 20:24 -35.43750 154.45229 35886 ft 417 kts 304°
2026-05-07 20:24 -35.39960 154.39773 35887 ft 417 kts 304°
2026-05-07 20:25 -35.36219 154.34397 35889 ft 418 kts 304°
2026-05-07 20:25 -35.32439 154.28972 35871 ft 418 kts 304°
2026-05-07 20:26 -35.28690 154.23607 35896 ft 413 kts 304°
2026-05-07 20:26 -35.24954 154.18263 35901 ft 413 kts 304°
2026-05-07 20:27 -35.21214 154.12921 35903 ft 413 kts 304°
2026-05-07 20:27 -35.17471 154.07583 35910 ft 413 kts 304°
2026-05-07 20:28 -35.13727 154.02254 35911 ft 413 kts 303°
2026-05-07 20:28 -35.09986 153.96938 35916 ft 412 kts 303°
2026-05-07 20:29 -35.06233 153.91638 35916 ft 413 kts 304°
2026-05-07 20:29 -35.02475 153.86343 35923 ft 413 kts 304°
2026-05-07 20:30 -34.98720 153.81042 35882 ft 412 kts 303°
2026-05-07 20:30 -34.94996 153.75788 35920 ft 408 kts 303°
2026-05-07 20:31 -34.91294 153.70564 35925 ft 407 kts 303°
2026-05-07 20:31 -34.87597 153.65356 35929 ft 407 kts 303°
2026-05-07 20:32 -34.83916 153.60178 35934 ft 407 kts 303°
2026-05-07 20:32 -34.80206 153.54969 35934 ft 407 kts 303°
2026-05-07 20:33 -34.76497 153.49768 35936 ft 407 kts 303°
2026-05-07 20:33 -34.72772 153.44554 35942 ft 407 kts 303°
2026-05-07 20:34 -34.69062 153.39367 35940 ft 408 kts 303°
2026-05-07 20:34 -34.65333 153.34163 35948 ft 408 kts 303°
2026-05-07 20:35 -34.61616 153.28987 35950 ft 404 kts 303°
2026-05-07 20:35 -34.57954 153.23891 35989 ft 403 kts 303°
2026-05-07 20:36 -34.54263 153.18761 35998 ft 404 kts 303°
2026-05-07 20:36 -34.50553 153.13647 36005 ft 404 kts 303°
2026-05-07 20:37 -34.46841 153.08527 36010 ft 405 kts 303°
2026-05-07 20:37 -34.43133 153.03408 36011 ft 401 kts 303°
2026-05-07 20:38 -34.39463 152.98343 36018 ft 400 kts 303°
2026-05-07 20:38 -34.37621 152.95797 35327 ft 402 kts 303°
2026-05-07 20:38 -34.35785 152.93266 34548 ft 398 kts 303°
2026-05-07 20:38 -34.33968 152.90766 33750 ft 395 kts 303°
2026-05-07 20:39 -34.32155 152.88271 32895 ft 395 kts 303°
2026-05-07 20:39 -34.30335 152.85762 32056 ft 398 kts 303°
2026-05-07 20:39 -34.28501 152.83235 31382 ft 401 kts 303°
2026-05-07 20:39 -34.26653 152.80691 30754 ft 405 kts 303°
2026-05-07 20:40 -34.24786 152.78122 30160 ft 408 kts 303°
2026-05-07 20:40 -34.22903 152.75538 29463 ft 411 kts 303°
2026-05-07 20:40 -34.21014 152.72951 28805 ft 410 kts 303°
2026-05-07 20:40 -34.19152 152.70406 28182 ft 409 kts 303°
2026-05-07 20:41 -34.17270 152.67834 27566 ft 407 kts 303°
2026-05-07 20:41 -34.15374 152.65244 26954 ft 406 kts 303°
2026-05-07 20:41 -34.13580 152.62690 26245 ft 400 kts 297°
2026-05-07 20:41 -34.12281 152.59806 25422 ft 384 kts 284°
2026-05-07 20:42 -34.11708 152.56724 24712 ft 373 kts 271°
2026-05-07 20:42 -34.11550 152.53610 24104 ft 372 kts 268°
2026-05-07 20:42 -34.11387 152.50498 23499 ft 372 kts 270°
2026-05-07 20:42 -34.11100 152.47393 22902 ft 372 kts 272°
2026-05-07 20:43 -34.10694 152.44309 22328 ft 372 kts 274°
2026-05-07 20:43 -34.10207 152.41249 21785 ft 371 kts 276°
2026-05-07 20:43 -34.09673 152.38214 21243 ft 369 kts 276°
2026-05-07 20:43 -34.09112 152.35192 20712 ft 368 kts 277°
2026-05-07 20:44 -34.08541 152.32192 20174 ft 366 kts 277°
2026-05-07 20:44 -34.07966 152.29208 19647 ft 365 kts 277°
2026-05-07 20:44 -34.07391 152.26236 19118 ft 363 kts 277°
2026-05-07 20:44 -34.06816 152.23272 18595 ft 362 kts 277°
2026-05-07 20:45 -34.06243 152.20328 18031 ft 360 kts 277°
2026-05-07 20:45 -34.05672 152.17398 17472 ft 358 kts 277°
2026-05-07 20:45 -34.05103 152.14483 16945 ft 356 kts 277°
2026-05-07 20:45 -34.04537 152.11583 16422 ft 354 kts 277°
2026-05-07 20:46 -34.03973 152.08698 15905 ft 352 kts 277°
2026-05-07 20:46 -34.03470 152.05836 15400 ft 349 kts 274°
2026-05-07 20:46 -34.03108 152.02958 14892 ft 346 kts 272°
2026-05-07 20:46 -34.02812 152.00130 14413 ft 344 kts 271°
2026-05-07 20:47 -34.02532 151.97278 13930 ft 342 kts 271°
2026-05-07 20:47 -34.02255 151.94437 13397 ft 340 kts 271°
2026-05-07 20:47 -34.01979 151.91610 12873 ft 339 kts 271°
2026-05-07 20:47 -34.01700 151.88789 12392 ft 339 kts 271°
2026-05-07 20:48 -34.01420 151.85974 11903 ft 338 kts 271°
2026-05-07 20:48 -34.01140 151.83171 11449 ft 336 kts 272°
2026-05-07 20:48 -34.00858 151.80378 11184 ft 335 kts 272°
2026-05-07 20:48 -34.00576 151.77628 11037 ft 321 kts 272°
2026-05-07 20:49 -34.00302 151.75035 10941 ft 303 kts 272°
2026-05-07 20:49 -34.00043 151.72589 10832 ft 287 kts 271°
2026-05-07 20:49 -33.99799 151.70267 10726 ft 272 kts 271°
2026-05-07 20:49 -33.99570 151.68064 10609 ft 262 kts 271°
2026-05-07 20:50 -33.99350 151.65891 10342 ft 261 kts 271°
2026-05-07 20:50 -33.99130 151.63726 9902 ft 260 kts 271°
2026-05-07 20:50 -33.98911 151.61572 9414 ft 258 kts 271°
2026-05-07 20:50 -33.98692 151.59432 9154 ft 257 kts 271°
2026-05-07 20:51 -33.98474 151.57317 9038 ft 258 kts 271°
2026-05-07 20:51 -33.98248 151.55143 9050 ft 259 kts 271°
2026-05-07 20:51 -33.98025 151.52995 9061 ft 258 kts 271°
2026-05-07 20:51 -33.97801 151.50848 9063 ft 258 kts 271°
2026-05-07 20:52 -33.97578 151.48706 9063 ft 258 kts 271°
2026-05-07 20:52 -33.97357 151.46593 9064 ft 258 kts 271°
2026-05-07 20:52 -33.97133 151.44451 9067 ft 258 kts 271°
2026-05-07 20:52 -33.96909 151.42306 9069 ft 258 kts 271°
2026-05-07 20:53 -33.96685 151.40163 9070 ft 258 kts 271°
2026-05-07 20:53 -33.96459 151.38006 9070 ft 258 kts 271°
2026-05-07 20:53 -33.96240 151.35888 8768 ft 256 kts 271°
2026-05-07 20:53 -33.96022 151.33759 8317 ft 256 kts 271°
2026-05-07 20:54 -33.95804 151.31624 7757 ft 260 kts 271°
2026-05-07 20:54 -33.95583 151.29433 7114 ft 268 kts 271°
2026-05-07 20:54 -33.95355 151.27178 6486 ft 275 kts 272°
2026-05-07 20:54 -33.95166 151.24877 5800 ft 277 kts 266°
2026-05-07 20:55 -33.95439 151.22612 5146 ft 273 kts 246°
2026-05-07 20:55 -33.96461 151.20724 4503 ft 271 kts 221°
2026-05-07 20:55 -33.98075 151.19633 4108 ft 266 kts 197°
2026-05-07 20:55 -33.99904 151.19484 3720 ft 264 kts 177°
2026-05-07 20:56 -34.01706 151.19829 3350 ft 261 kts 172°
2026-05-07 20:56 -34.03461 151.20258 3162 ft 251 kts 172°
2026-05-07 20:56 -34.05119 151.20672 3117 ft 235 kts 172°
2026-05-07 20:56 -34.06664 151.21051 3120 ft 219 kts 173°
2026-05-07 20:57 -34.08115 151.21400 3123 ft 208 kts 173°
2026-05-07 20:57 -34.09527 151.21732 3139 ft 206 kts 173°
2026-05-07 20:57 -34.10938 151.22059 3125 ft 206 kts 173°
2026-05-07 20:57 -34.12348 151.22385 3121 ft 207 kts 174°
2026-05-07 20:58 -34.13759 151.22713 3131 ft 204 kts 174°
2026-05-07 20:58 -34.14676 151.22928 3117 ft 202 kts 174°
2026-05-07 20:58 -34.16052 151.23247 3110 ft 201 kts 174°
2026-05-07 20:58 -34.17416 151.23249 3084 ft 194 kts 202°
2026-05-07 20:59 -34.18513 151.21670 3121 ft 198 kts 256°
2026-05-07 20:59 -34.18219 151.20037 3132 ft 211 kts 297°
2026-05-07 20:59 -34.17474 151.19210 3119 ft 222 kts 326°
2026-05-07 20:59 -34.15935 151.18889 3132 ft 233 kts
2026-05-07 21:00 -34.14346 151.19234 3134 ft 236 kts
2026-05-07 21:00 -34.12738 151.19705 3125 ft 236 kts 13°
2026-05-07 21:00 -34.11185 151.20309 3121 ft 228 kts 17°
2026-05-07 21:00 -34.09744 151.20919 3105 ft 216 kts 11°
2026-05-07 21:01 -34.08301 151.21095 2958 ft 212 kts 353°
2026-05-07 21:01 -34.06851 151.20982 2432 ft 207 kts 350°
2026-05-07 21:01 -34.05444 151.20839 1913 ft 198 kts 345°
2026-05-07 21:01 -34.04174 151.20578 1422 ft 169 kts 336°
2026-05-07 21:02 -34.03152 151.20251 1182 ft 142 kts 335°
2026-05-07 21:02 -34.02089 151.19784 1153 ft 178 kts 332°
2026-05-07 21:02 -34.00839 151.19256 1141 ft 203 kts 335°
2026-05-07 21:02 -33.99519 151.18847 767 ft 190 kts 345°
2026-05-07 21:03 -33.98266 151.18578 420 ft 172 kts 344°
2026-05-07 21:03 -33.97188 151.18250 206 ft 151 kts 344°
2026-05-07 21:03 -33.96223 151.18009 32 ft 132 kts 344°
2026-05-07 21:03 -33.95459 151.17808 29 ft 90 kts 348°
2026-05-07 21:04 -33.94961 151.17681 29 ft 64 kts 348°
2026-05-07 21:04 -33.94553 151.17672 31 ft 55 kts 15°
2026-05-07 21:04 -33.94332 151.17780 30 ft 20 kts 61°
2026-05-07 21:04 -33.94283 151.17918 32 ft 17 kts 71°
2026-05-07 21:05 -33.94251 151.18026 33 ft 5 kts 79°
2026-05-07 21:05 -33.94263 151.18050 33 ft 3 kts 140°
2026-05-07 21:05 -33.94280 151.18052 33 ft 2 kts 185°
2026-05-07 21:05 -33.94293 151.18041 33 ft 3 kts 218°
2026-05-07 21:06 -33.94310 151.18030 32 ft 1 kts 197°
2026-05-07 21:06 -33.94317 151.18032 32 ft 1 kts 170°
2026-05-07 21:06 -33.94335 151.18037 32 ft 0 kts 165°
2026-05-07 21:07 -33.94336 151.18037 32 ft 0 kts 165°